Quick links : Home Page : Contact Us : Index : Site Map : Search Site : Ephemerides


74P/Smirnova-Chernykh

Orbital Elements

The following orbital elements are taken from MPC 56804:
74P/Smirnova-Chernykh
Epoch 2009 July 28.0 TT = JDT 2455040.5
T 2009 July 30.3354 TT                                  MPC
q   3.557668             (2000.0)            P               Q
n   0.1155990      Peri.   87.2431      -0.9563512      -0.2695552
a   4.173495       Node    77.1004      +0.2002329      -0.8857214
e   0.147557       Incl.    6.6474      +0.2128358      -0.3779385
P   8.53
From 788 observations 1988-2005, mean residual 0".8.
Elements are also available for the current standard epoch:
74P/Smirnova-Chernykh
Epoch 2008 May 14.0 TT = JDT 2454600.5
T 2009 July 31.0050 TT                                  MPC
q   3.557057             (2000.0)            P               Q
n   0.1155727      Peri.   87.3430      -0.9568810      -0.2676587
a   4.174128       Node    77.1140      +0.1984725      -0.8861278
e   0.147832       Incl.    6.6484      +0.2121025      -0.3783336
P   8.53
An explanation of the orbital elements is available.

These orbital elements are also available in forms suitable for loading into a number of popular planetarium-type software programs.


Ephemeris

The following ephemeris is at intervals of five days. A daily ephemeris covering the same time interval is also available.

Personalized ephemerides for this (and other) objects may be generated using the Minor Planet & Comet Ephemeris Service.

Recent magnitude estimates for this comet (as reported to the ICQ) may be available.

Date    TT    R. A. (2000) Decl.     Delta      r     Elong.  Phase   m1    m2

WARNING!

This comet gets close to the sun during the period covered in the ephemeris below. Observers are warned to be wary of observing comets near the sun. NEVER point any kind of optical instrument at the sun--instant blindness will be the probable result.

2008 07 13 07 17.13 +24 51.8 4.797 3.784 4.3 1.1 17.1 22.0 2008 07 18 07 23.95 +24 42.4 4.785 3.779 7.1 1.9 17.1 22.0 2008 07 23 07 30.76 +24 32.2 4.769 3.774 10.2 2.7 17.0 22.1 2008 07 28 07 37.53 +24 21.1 4.749 3.769 13.3 3.6 17.0 22.1 2008 08 02 07 44.28 +24 09.2 4.725 3.763 16.5 4.4 17.0 22.1 2008 08 07 07 50.97 +23 56.5 4.697 3.758 19.7 5.2 17.0 22.2 2008 08 12 07 57.60 +23 43.2 4.665 3.753 23.0 6.1 17.0 22.2 2008 08 17 08 04.17 +23 29.3 4.629 3.748 26.2 6.9 16.9 22.2 2008 08 22 08 10.66 +23 14.8 4.590 3.743 29.5 7.7 16.9 22.2 2008 08 27 08 17.06 +22 59.9 4.547 3.738 32.8 8.4 16.9 22.2 2008 09 01 08 23.37 +22 44.6 4.500 3.733 36.2 9.2 16.8 22.2 2008 09 06 08 29.56 +22 29.1 4.450 3.729 39.6 9.9 16.8 22.2 2008 09 11 08 35.63 +22 13.4 4.396 3.724 43.0 10.6 16.8 22.2 2008 09 16 08 41.57 +21 57.7 4.339 3.719 46.5 11.3 16.7 22.2 2008 09 21 08 47.36 +21 42.1 4.280 3.714 50.0 11.9 16.7 22.2 2008 09 26 08 53.00 +21 26.7 4.217 3.710 53.5 12.6 16.7 22.2 2008 10 01 08 58.47 +21 11.7 4.152 3.705 57.1 13.1 16.6 22.2 2008 10 06 09 03.75 +20 57.2 4.084 3.701 60.8 13.6 16.6 22.2 2008 10 11 09 08.82 +20 43.4 4.014 3.696 64.5 14.1 16.5 22.2 2008 10 16 09 13.68 +20 30.4 3.942 3.692 68.3 14.5 16.5 22.1 2008 10 21 09 18.30 +20 18.3 3.868 3.687 72.2 14.9 16.4 22.1 2008 10 26 09 22.67 +20 07.4 3.793 3.683 76.1 15.2 16.4 22.1 2008 10 31 09 26.77 +19 57.9 3.717 3.679 80.1 15.4 16.3 22.0 2008 11 05 09 30.57 +19 49.8 3.640 3.675 84.2 15.6 16.3 22.0 2008 11 10 09 34.06 +19 43.4 3.562 3.671 88.4 15.6 16.2 21.9 2008 11 15 09 37.21 +19 38.9 3.484 3.667 92.7 15.6 16.2 21.9 2008 11 20 09 40.00 +19 36.3 3.407 3.663 97.1 15.5 16.1 21.8 2008 11 25 09 42.41 +19 35.9 3.331 3.659 101.6 15.3 16.1 21.8 2008 11 30 09 44.41 +19 37.7 3.255 3.655 106.2 15.0 16.0 21.7 2008 12 05 09 45.99 +19 42.0 3.182 3.651 110.9 14.6 15.9 21.6 2008 12 10 09 47.11 +19 48.6 3.111 3.647 115.7 14.1 15.9 21.6 2008 12 15 09 47.78 +19 57.8 3.042 3.644 120.6 13.4 15.8 21.5 2008 12 20 09 47.97 +20 09.3 2.977 3.640 125.7 12.7 15.8 21.4 2008 12 25 09 47.68 +20 23.2 2.916 3.636 130.8 11.8 15.7 21.3 2008 12 30 09 46.90 +20 39.3 2.860 3.633 136.1 10.8 15.7 21.3 2009 01 04 09 45.64 +20 57.4 2.808 3.630 141.5 9.7 15.6 21.2 2009 01 09 09 43.93 +21 17.1 2.763 3.626 146.9 8.5 15.6 21.1 2009 01 14 09 41.79 +21 38.0 2.723 3.623 152.4 7.2 15.6 21.0 2009 01 19 09 39.27 +21 59.8 2.690 3.620 157.8 5.9 15.5 20.9 2009 01 24 09 36.40 +22 22.0 2.664 3.617 163.1 4.5 15.5 20.8 2009 01 29 09 33.27 +22 43.9 2.645 3.614 168.0 3.3 15.5 20.7 2009 02 03 09 29.95 +23 05.2 2.633 3.611 171.5 2.3 15.5 20.7 2009 02 08 09 26.53 +23 25.1 2.629 3.608 171.6 2.3 15.5 20.6 2009 02 13 09 23.09 +23 43.4 2.633 3.605 168.3 3.2 15.5 20.7 2009 02 18 09 19.72 +23 59.7 2.644 3.602 163.5 4.5 15.5 20.8 2009 02 23 09 16.51 +24 13.5 2.662 3.600 158.3 5.8 15.5 20.9 2009 02 28 09 13.54 +24 24.7 2.687 3.597 152.9 7.2 15.5 21.0 2009 03 05 09 10.89 +24 33.1 2.718 3.595 147.5 8.5 15.5 21.0 2009 03 10 09 08.62 +24 38.7 2.756 3.592 142.1 9.8 15.5 21.1 2009 03 15 09 06.77 +24 41.5 2.799 3.590 136.9 10.9 15.6 21.2 2009 03 20 09 05.37 +24 41.6 2.847 3.588 131.7 12.0 15.6 21.3 2009 03 25 09 04.46 +24 39.0 2.900 3.585 126.6 12.9 15.6 21.3 2009 03 30 09 04.04 +24 33.9 2.956 3.583 121.7 13.7 15.7 21.4 2009 04 04 09 04.12 +24 26.4 3.016 3.581 116.9 14.4 15.7 21.5 2009 04 09 09 04.69 +24 16.7 3.079 3.579 112.2 15.0 15.7 21.5 2009 04 14 09 05.74 +24 04.9 3.144 3.577 107.6 15.5 15.8 21.6 2009 04 19 09 07.24 +23 51.2 3.211 3.576 103.2 15.9 15.8 21.7 2009 04 24 09 09.18 +23 35.6 3.279 3.574 98.8 16.1 15.9 21.7 2009 04 29 09 11.54 +23 18.2 3.348 3.572 94.6 16.3 15.9 21.8 2009 05 04 09 14.28 +22 59.2 3.417 3.571 90.5 16.4 16.0 21.8 2009 05 09 09 17.39 +22 38.7 3.487 3.569 86.5 16.4 16.0 21.9 2009 05 14 09 20.82 +22 16.7 3.556 3.568 82.5 16.3 16.0 21.9 2009 05 19 09 24.56 +21 53.3 3.625 3.567 78.7 16.1 16.1 21.9 2009 05 24 09 28.59 +21 28.5 3.692 3.565 74.9 15.9 16.1 22.0 2009 05 29 09 32.88 +21 02.5 3.759 3.564 71.2 15.6 16.2 22.0 2009 06 03 09 37.41 +20 35.2 3.824 3.563 67.6 15.3 16.2 22.0 2009 06 08 09 42.14 +20 06.8 3.888 3.562 64.0 14.8 16.2 22.0 2009 06 13 09 47.07 +19 37.2 3.949 3.562 60.6 14.4 16.3 22.1 2009 06 18 09 52.18 +19 06.5 4.009 3.561 57.1 13.9 16.3 22.1 2009 06 23 09 57.45 +18 34.8 4.066 3.560 53.7 13.3 16.3 22.1 2009 06 28 10 02.86 +18 02.2 4.121 3.559 50.4 12.7 16.3 22.1 2009 07 03 10 08.39 +17 28.6 4.173 3.559 47.1 12.1 16.4 22.1 2009 07 08 10 14.04 +16 54.1 4.222 3.559 43.8 11.4 16.4 22.1 2009 07 13 10 19.79 +16 18.8 4.269 3.558 40.6 10.7 16.4 22.1 2009 07 18 10 25.63 +15 42.7 4.312 3.558 37.4 10.0 16.4 22.1 2009 07 23 10 31.54 +15 05.9 4.352 3.558 34.2 9.2 16.5 22.1 2009 07 28 10 37.53 +14 28.4 4.389 3.558 31.0 8.5 16.5 22.1 2009 08 02 10 43.57 +13 50.4 4.423 3.558 27.9 7.7 16.5 22.0 2009 08 07 10 49.66 +13 11.8 4.453 3.558 24.8 6.9 16.5 22.0 2009 08 12 10 55.80 +12 32.7 4.479 3.558 21.7 6.1 16.5 22.0 2009 08 17 11 01.97 +11 53.2 4.503 3.558 18.7 5.2 16.5 22.0

Back to Observable Comets

MPC CBAT ICQ

Valid HTML 4.01!